TimeCDT,TemperatureF,Dew PointF,Humidity,Sea Level PressureIn,VisibilityMPH,Wind Direction,Wind SpeedMPH,Gust SpeedMPH,PrecipitationIn,Events,Conditions,WindDirDegrees,DateUTC
12:15 AM,-9999,-9999,N/A,29.99,10.0,Calm,Calm,-,N/A,,Clear,0,2013-08-23 05:15:00
12:35 AM,-9999,-9999,N/A,30.00,10.0,Calm,Calm,-,0.01,,Clear,0,2013-08-23 05:35:00
12:55 AM,-9999,-9999,N/A,29.99,10.0,Calm,Calm,-,0.01,,Clear,0,2013-08-23 05:55:00
1:15 AM,-9999,-9999,N/A,29.99,10.0,Calm,Calm,-,N/A,,Clear,0,2013-08-23 06:15:00
1:35 AM,-9999,-9999,N/A,29.99,10.0,Calm,Calm,-,0.01,,Clear,0,2013-08-23 06:35:00
1:55 AM,-9999,-9999,N/A,29.98,10.0,Calm,Calm,-,0.01,,Clear,0,2013-08-23 06:55:00
2:15 AM,-9999,-9999,N/A,29.98,10.0,Calm,Calm,-,N/A,,Clear,0,2013-08-23 07:15:00
2:35 AM,-9999,-9999,N/A,29.97,10.0,Calm,Calm,-,N/A,,Clear,0,2013-08-23 07:35:00
2:55 AM,-9999,-9999,N/A,29.97,10.0,Calm,Calm,-,0.01,,Scattered Clouds,0,2013-08-23 07:55:00
3:15 AM,-9999,-9999,N/A,29.97,10.0,NE,3.5,-,N/A,,Clear,50,2013-08-23 08:15:00
3:35 AM,-9999,-9999,N/A,29.96,10.0,ENE,3.5,-,N/A,,Clear,60,2013-08-23 08:35:00
3:55 AM,-9999,-9999,N/A,29.96,10.0,Calm,Calm,-,N/A,,Clear,0,2013-08-23 08:55:00
4:15 AM,-9999,-9999,N/A,29.96,10.0,North,3.5,-,N/A,,Clear,10,2013-08-23 09:15:00
4:35 AM,-9999,-9999,N/A,29.95,10.0,Calm,Calm,-,0.01,,Clear,0,2013-08-23 09:35:00
4:55 AM,-9999,-9999,N/A,29.95,7.0,ENE,3.5,-,0.01,,Clear,60,2013-08-23 09:55:00
5:15 AM,-9999,-9999,N/A,29.95,10.0,Calm,Calm,-,N/A,,Clear,0,2013-08-23 10:15:00
5:35 AM,-9999,-9999,N/A,29.95,7.0,Calm,Calm,-,N/A,,Clear,0,2013-08-23 10:35:00
5:55 AM,-9999,-9999,N/A,29.95,10.0,Calm,Calm,-,N/A,,Clear,0,2013-08-23 10:55:00
6:15 AM,-9999,-9999,N/A,29.96,10.0,Calm,Calm,-,N/A,,Clear,0,2013-08-23 11:15:00
6:35 AM,-9999,-9999,N/A,29.96,10.0,Calm,Calm,-,0.01,,Clear,0,2013-08-23 11:35:00
6:55 AM,-9999,-9999,N/A,29.97,10.0,North,4.6,-,0.01,,Clear,10,2013-08-23 11:55:00
7:15 AM,-9999,-9999,N/A,29.98,10.0,Calm,Calm,-,N/A,,Clear,0,2013-08-23 12:15:00
7:35 AM,-9999,-9999,N/A,29.99,10.0,North,3.5,-,N/A,,Clear,350,2013-08-23 12:35:00
7:55 AM,-9999,-9999,N/A,29.99,10.0,North,3.5,-,N/A,,Clear,10,2013-08-23 12:55:00
8:15 AM,-9999,-9999,N/A,29.99,10.0,North,6.9,-,N/A,,Clear,10,2013-08-23 13:15:00
8:35 AM,78.8,78.8,100,29.99,10.0,North,8.1,-,N/A,,Clear,10,2013-08-23 13:35:00
8:55 AM,81.3,81.3,100,30.00,10.0,NNE,6.9,-,N/A,,Clear,20,2013-08-23 13:55:00
9:15 AM,82.8,82.4,99,30.00,10.0,NNE,5.8,-,0.01,,Clear,20,2013-08-23 14:15:00
9:35 AM,84.0,80.1,88,30.00,10.0,NNE,5.8,-,0.01,,Clear,20,2013-08-23 14:35:00
9:55 AM,85.6,77.4,76,30.00,10.0,NNE,5.8,-,0.01,,Clear,30,2013-08-23 14:55:00
10:15 AM,86.9,77.0,72,30.00,10.0,ENE,5.8,-,N/A,,Clear,60,2013-08-23 15:15:00
10:35 AM,87.3,76.5,70,30.01,10.0,NNE,6.9,-,N/A,,Scattered Clouds,30,2013-08-23 15:35:00
10:55 AM,87.6,76.1,68,30.01,10.0,ENE,10.4,-,N/A,,Scattered Clouds,60,2013-08-23 15:55:00
11:15 AM,88.7,75.4,65,30.01,10.0,NE,11.5,-,N/A,,Scattered Clouds,50,2013-08-23 16:15:00
11:35 AM,88.5,75.6,65,30.00,10.0,ENE,5.8,-,N/A,,Mostly Cloudy,60,2013-08-23 16:35:00
11:55 AM,88.7,75.9,66,30.00,10.0,NE,6.9,-,N/A,,Scattered Clouds,50,2013-08-23 16:55:00
12:15 PM,89.2,75.6,64,29.99,10.0,NNE,4.6,-,0.01,,Clear,30,2013-08-23 17:15:00
12:35 PM,89.6,74.7,61,29.99,10.0,ENE,6.9,-,0.01,,Scattered Clouds,70,2013-08-23 17:35:00
12:55 PM,82.4,75.6,80,29.99,10.0,SE,5.8,-,0.01,Rain,Light Rain,130,2013-08-23 17:55:00
1:15 PM,87.1,76.3,70,29.98,10.0,East,3.5,-,N/A,,Scattered Clouds,90,2013-08-23 18:15:00
1:35 PM,90.9,75.4,60,29.97,10.0,East,5.8,-,N/A,,Scattered Clouds,100,2013-08-23 18:35:00
1:55 PM,92.1,74.3,56,29.96,10.0,East,8.1,-,N/A,,Scattered Clouds,100,2013-08-23 18:55:00
2:15 PM,93.6,73.9,53,29.96,10.0,ENE,6.9,-,N/A,,Scattered Clouds,70,2013-08-23 19:15:00
2:35 PM,92.8,73.4,53,29.95,10.0,ENE,8.1,-,N/A,,Scattered Clouds,70,2013-08-23 19:35:00
2:55 PM,93.7,73.0,51,29.94,10.0,East,6.9,-,N/A,,Scattered Clouds,80,2013-08-23 19:55:00
3:15 PM,93.2,72.7,51,29.93,10.0,ESE,8.1,-,N/A,,Mostly Cloudy,110,2013-08-23 20:15:00
3:35 PM,91.8,72.1,52,29.93,10.0,ENE,5.8,-,N/A,,Mostly Cloudy,60,2013-08-23 20:35:00
3:55 PM,91.2,73.6,56,29.92,10.0,NE,6.9,-,N/A,,Scattered Clouds,50,2013-08-23 20:55:00
4:15 PM,91.8,74.1,56,29.92,10.0,ENE,5.8,-,N/A,,Scattered Clouds,60,2013-08-23 21:15:00
4:35 PM,91.2,73.9,57,29.91,10.0,NE,5.8,-,N/A,,Clear,40,2013-08-23 21:35:00
4:55 PM,92.5,73.2,53,29.90,10.0,NE,8.1,-,N/A,,Scattered Clouds,50,2013-08-23 21:55:00
5:15 PM,92.8,72.0,50,29.90,10.0,East,6.9,-,N/A,,Scattered Clouds,100,2013-08-23 22:15:00
5:35 PM,93.2,70.9,48,29.90,10.0,ESE,9.2,-,N/A,,Scattered Clouds,120,2013-08-23 22:35:00
5:55 PM,92.5,70.5,49,29.90,10.0,ESE,10.4,-,N/A,,Clear,110,2013-08-23 22:55:00
6:15 PM,90.9,71.6,53,29.90,10.0,ESE,9.2,-,N/A,,Clear,120,2013-08-23 23:15:00
6:35 PM,90.5,73.4,57,29.90,10.0,East,9.2,-,N/A,,Clear,100,2013-08-23 23:35:00
6:55 PM,89.4,73.6,59,29.90,10.0,ESE,9.2,-,N/A,,Clear,110,2013-08-23 23:55:00
7:15 PM,88.2,73.9,63,29.90,10.0,ESE,8.1,-,N/A,,Clear,110,2013-08-24 00:15:00
7:35 PM,86.2,74.3,68,29.90,10.0,ESE,4.6,-,N/A,,Clear,120,2013-08-24 00:35:00
7:55 PM,84.4,74.3,72,29.90,10.0,SE,4.6,-,N/A,,Clear,130,2013-08-24 00:55:00
8:15 PM,82.8,74.5,76,29.91,10.0,SE,5.8,-,N/A,,Clear,140,2013-08-24 01:15:00
8:35 PM,81.7,74.8,80,29.92,10.0,ESE,4.6,-,N/A,,Clear,110,2013-08-24 01:35:00
8:55 PM,81.3,75.2,82,29.93,10.0,Calm,Calm,-,N/A,,Clear,0,2013-08-24 01:55:00
9:15 PM,81.3,75.2,82,29.93,10.0,Calm,Calm,-,N/A,,Clear,0,2013-08-24 02:15:00
9:35 PM,80.1,75.6,86,29.93,10.0,Calm,Calm,-,N/A,,Clear,0,2013-08-24 02:35:00
9:55 PM,79.7,75.7,88,29.94,10.0,Calm,Calm,-,N/A,,Clear,0,2013-08-24 02:55:00
10:15 PM,79.7,75.9,88,29.95,10.0,Calm,Calm,-,N/A,,Clear,0,2013-08-24 03:15:00
10:35 PM,78.8,78.1,98,29.95,10.0,Calm,Calm,-,N/A,,Clear,0,2013-08-24 03:35:00
10:55 PM,78.8,78.8,100,29.95,10.0,Calm,Calm,-,N/A,,Clear,0,2013-08-24 03:55:00
11:15 PM,79.0,79.0,100,29.95,10.0,Calm,Calm,-,N/A,,Clear,0,2013-08-24 04:15:00
11:35 PM,77.0,77.0,100,29.95,10.0,Calm,Calm,-,N/A,,Clear,0,2013-08-24 04:35:00
11:55 PM,-9999,-9999,N/A,29.95,7.0,Calm,Calm,-,N/A,,Clear,0,2013-08-24 04:55:00